{"data":{"norad_id":69446,"intl_designator":"2026-127D","name":"STARLINK-37522","alt_names":[],"object_type":"PAYLOAD","status":"ACTIVE","operator":null,"country":"US","launch_date":"2026-06-08","launch_site_code":"AFETR","launch_vehicle":null,"mission":null,"orbit_class":"UNKNOWN","rcs_meters":null,"size_class":null,"mass_kg":null,"dimensions":null,"purposes":["comms"],"wikipedia_slug":null,"has_3d_model":false,"image_url":null,"decayed_at":null,"tle_current":{"epoch":"2026-09-20T02:49:20.950176Z","epoch_age_seconds":58515,"freshness":"FRESH","line1":"1 69446U 26127D   26263.11760359  .00008037  00000+0  24876-3 0  9995","line2":"2 69446  53.1598 167.4903 0001636  88.4642 271.6548 15.34398689 16130","mean_motion":15.34398689,"eccentricity":0.0001636,"inclination_deg":53.1598,"raan_deg":167.4903,"arg_perigee_deg":88.4642,"mean_anomaly_deg":271.6548,"bstar":0.00024876,"rev_number":1613,"period_min":93.847838265456,"perigee_km":461.58797467738,"apogee_km":463.82629887894,"semimajor_km":6840.8441367782,"source":"CELESTRAK","updated_at":"2026-09-20T09:00:44.199251Z"}}}